TimeCST,TemperatureF,Dew PointF,Humidity,Sea Level PressureIn,VisibilityMPH,Wind Direction,Wind SpeedMPH,Gust SpeedMPH,PrecipitationIn,Events,Conditions,WindDirDegrees,DateUTC
12:15 AM,44.8,34.7,68,30.29,10.0,SSE,11.5,-,N/A,,Clear,160,2012-11-17 06:15:00
12:35 AM,44.1,34.7,70,30.29,10.0,SSE,11.5,-,N/A,,Clear,160,2012-11-17 06:35:00
12:55 AM,43.7,34.5,70,30.29,10.0,South,12.7,-,N/A,,Clear,170,2012-11-17 06:55:00
1:15 AM,43.2,34.7,72,30.28,10.0,South,12.7,-,N/A,,Clear,170,2012-11-17 07:15:00
1:35 AM,42.8,34.3,72,30.28,10.0,South,11.5,-,N/A,,Clear,170,2012-11-17 07:35:00
1:55 AM,42.1,34.2,74,30.28,10.0,South,11.5,-,N/A,,Clear,170,2012-11-17 07:55:00
2:15 AM,42.3,34.2,73,30.28,10.0,SSE,10.4,-,N/A,,Clear,160,2012-11-17 08:15:00
2:35 AM,42.8,34.3,72,30.28,10.0,SSE,10.4,16.1,N/A,,Clear,160,2012-11-17 08:35:00
2:55 AM,42.3,34.3,74,30.28,10.0,SSE,10.4,-,N/A,,Clear,160,2012-11-17 08:55:00
3:15 AM,41.9,34.2,74,30.27,10.0,SSE,10.4,-,N/A,,Clear,160,2012-11-17 09:15:00
3:55 AM,41.9,34.0,73,30.26,10.0,SSE,11.5,-,N/A,,Clear,160,2012-11-17 09:55:00
4:15 AM,41.7,33.8,73,30.26,10.0,SSE,10.4,17.3,N/A,,Clear,160,2012-11-17 10:15:00
4:35 AM,41.4,33.8,74,30.26,10.0,SSE,10.4,-,N/A,,Clear,160,2012-11-17 10:35:00
4:55 AM,41.2,33.8,75,30.26,10.0,SSE,9.2,-,N/A,,Clear,160,2012-11-17 10:55:00
5:15 AM,41.0,33.8,76,30.26,10.0,SSE,10.4,-,N/A,,Clear,160,2012-11-17 11:15:00
5:35 AM,40.8,33.8,76,30.26,10.0,SSE,10.4,-,N/A,,Clear,160,2012-11-17 11:35:00
5:55 AM,41.5,33.8,74,30.26,10.0,SSE,11.5,-,N/A,,Clear,160,2012-11-17 11:55:00
6:15 AM,41.0,33.8,76,30.26,10.0,SSE,11.5,-,N/A,,Clear,160,2012-11-17 12:15:00
6:35 AM,41.4,33.4,73,30.26,10.0,SSE,12.7,-,N/A,,Clear,160,2012-11-17 12:35:00
6:55 AM,41.2,33.4,74,30.26,10.0,SSE,11.5,-,N/A,,Clear,150,2012-11-17 12:55:00
7:15 AM,41.4,33.4,73,30.26,10.0,SSE,11.5,-,N/A,,Clear,160,2012-11-17 13:15:00
7:35 AM,41.9,33.6,72,30.26,10.0,SSE,13.8,-,N/A,,Clear,150,2012-11-17 13:35:00
7:55 AM,43.0,33.8,70,30.26,10.0,SSE,15.0,-,N/A,,Clear,160,2012-11-17 13:55:00
8:15 AM,44.2,33.8,67,30.26,10.0,SSE,15.0,-,N/A,,Clear,160,2012-11-17 14:15:00
8:35 AM,44.8,33.8,65,30.26,10.0,SSE,16.1,-,N/A,,Clear,160,2012-11-17 14:35:00
8:55 AM,46.4,34.0,62,30.26,10.0,SSE,16.1,-,N/A,,Clear,160,2012-11-17 14:55:00
9:15 AM,47.5,34.2,60,30.26,10.0,SSE,17.3,25.3,N/A,,Clear,160,2012-11-17 15:15:00
9:35 AM,49.1,34.0,56,30.26,10.0,South,18.4,24.2,N/A,,Clear,170,2012-11-17 15:35:00
9:55 AM,50.0,33.6,53,30.25,10.0,South,18.4,27.6,N/A,,Clear,170,2012-11-17 15:55:00
10:15 AM,52.0,33.6,50,30.25,10.0,South,21.9,-,N/A,,Clear,170,2012-11-17 16:15:00
10:35 AM,53.2,33.4,47,30.25,10.0,South,23.0,26.5,N/A,,Clear,170,2012-11-17 16:35:00
11:55 AM,58.6,33.1,38,30.21,10.0,SSE,23.0,29.9,N/A,,Clear,160,2012-11-17 17:55:00
12:15 PM,58.1,33.3,39,30.20,10.0,SSE,21.9,27.6,N/A,,Clear,160,2012-11-17 18:15:00
12:35 PM,59.0,33.4,38,30.18,10.0,SSE,19.6,28.8,N/A,,Clear,160,2012-11-17 18:35:00
12:55 PM,60.1,33.1,36,30.18,10.0,SSE,20.7,29.9,N/A,,Clear,160,2012-11-17 18:55:00
1:15 PM,61.9,33.8,35,30.17,10.0,SSE,21.9,29.9,N/A,,Clear,160,2012-11-17 19:15:00
1:35 PM,61.7,33.6,35,30.16,10.0,South,23.0,28.8,N/A,,Clear,170,2012-11-17 19:35:00
1:55 PM,61.9,33.3,34,30.16,10.0,SSE,20.7,32.2,N/A,,Clear,160,2012-11-17 19:55:00
2:15 PM,62.6,33.8,34,30.15,10.0,South,20.7,-,N/A,,Clear,170,2012-11-17 20:15:00
2:35 PM,62.1,33.8,35,30.13,10.0,SSE,16.1,29.9,N/A,,Clear,160,2012-11-17 20:35:00
2:55 PM,61.2,33.8,36,30.13,10.0,South,25.3,34.5,N/A,,Clear,170,2012-11-17 20:55:00
3:15 PM,61.7,33.8,35,30.13,10.0,SSE,21.9,29.9,N/A,,Scattered Clouds,160,2012-11-17 21:15:00
3:35 PM,60.3,34.2,38,30.13,10.0,SSE,18.4,31.1,N/A,,Clear,160,2012-11-17 21:35:00
3:55 PM,60.3,33.6,37,30.14,10.0,SSE,18.4,27.6,N/A,,Scattered Clouds,150,2012-11-17 21:55:00
4:15 PM,59.4,33.4,38,30.14,10.0,SSE,15.0,-,N/A,,Scattered Clouds,150,2012-11-17 22:15:00
4:35 PM,58.6,33.4,39,30.14,10.0,SSE,16.1,23.0,N/A,,Clear,150,2012-11-17 22:35:00
4:55 PM,58.8,33.3,38,30.13,10.0,SSE,16.1,24.2,N/A,,Clear,160,2012-11-17 22:55:00
5:15 PM,58.3,33.3,39,30.14,10.0,SSE,16.1,24.2,N/A,,Clear,160,2012-11-17 23:15:00
5:35 PM,57.7,32.9,39,30.13,10.0,SSE,18.4,26.5,N/A,,Clear,160,2012-11-17 23:35:00
5:55 PM,57.2,32.9,40,30.13,10.0,SSE,15.0,26.5,N/A,,Clear,160,2012-11-17 23:55:00
6:15 PM,56.3,33.1,41,30.14,10.0,SSE,16.1,23.0,N/A,,Clear,160,2012-11-18 00:15:00
6:35 PM,55.4,33.1,43,30.14,10.0,SSE,15.0,21.9,N/A,,Clear,160,2012-11-18 00:35:00
6:55 PM,54.5,33.6,45,30.15,10.0,SSE,16.1,21.9,N/A,,Clear,160,2012-11-18 00:55:00
7:15 PM,54.5,33.8,46,30.16,10.0,SSE,21.9,26.5,N/A,,Clear,160,2012-11-18 01:15:00
7:35 PM,54.0,33.8,46,30.16,10.0,South,19.6,25.3,N/A,,Clear,170,2012-11-18 01:35:00
7:55 PM,53.6,34.0,47,30.16,10.0,SSE,20.7,26.5,N/A,,Clear,160,2012-11-18 01:55:00
8:15 PM,53.6,33.8,47,30.16,10.0,South,19.6,27.6,N/A,,Clear,170,2012-11-18 02:15:00
8:35 PM,52.9,33.3,47,30.16,10.0,South,20.7,26.5,N/A,,Clear,170,2012-11-18 02:35:00
8:55 PM,52.5,33.3,48,30.16,10.0,SSE,19.6,26.5,N/A,,Clear,160,2012-11-18 02:55:00
9:15 PM,52.3,33.1,48,30.15,10.0,SSE,19.6,26.5,N/A,,Clear,160,2012-11-18 03:15:00
9:35 PM,52.2,32.9,48,30.16,10.0,South,21.9,28.8,N/A,,Clear,170,2012-11-18 03:35:00
9:55 PM,52.2,32.4,47,30.16,10.0,South,20.7,31.1,N/A,,Mostly Cloudy,170,2012-11-18 03:55:00
10:15 PM,52.2,32.0,46,30.16,10.0,South,21.9,28.8,N/A,,Overcast,170,2012-11-18 04:15:00
10:35 PM,52.2,32.0,46,30.15,10.0,SSE,20.7,26.5,N/A,,Overcast,160,2012-11-18 04:35:00
10:55 PM,51.6,31.1,45,30.16,10.0,SSE,20.7,25.3,N/A,,Overcast,160,2012-11-18 04:55:00
11:15 PM,50.9,30.7,46,30.16,10.0,South,20.7,24.2,N/A,,Scattered Clouds,170,2012-11-18 05:15:00
11:35 PM,50.5,30.0,45,30.15,10.0,SSE,19.6,29.9,N/A,,Clear,160,2012-11-18 05:35:00
11:55 PM,50.0,29.3,45,30.14,10.0,SSE,20.7,24.2,N/A,,Clear,160,2012-11-18 05:55:00